Regional Weather Roundup
Issued by NWS

Home | Current Version | Previous Version | Graphics & Text | Print | Product List | Glossary On
Versions: 1 2 3 4 5 6 7 8 9 10 11 12 13 14 15 16 17 18 19 20 21 22 23 24 25 26 27 28 29 30 31 32 33 34 35 36 37 38 39 40 41 42 43 44 45 46 47 48 49 50
000
ASUS43 KDTX 291001
RWRMI
MICHIGAN HOURLY REGIONAL WEATHER ROUNDUP
NATIONAL WEATHER SERVICE DETROIT/PONTIAC MI
600 AM EDT FRI AUG 29 2014

NOTE: "FAIR" INDICATES FEW OR NO CLOUDS BELOW 12,000 FEET WITH NO
SIGNIFICANT WEATHER AND/OR OBSTRUCTION TO VISIBILITY.

MIZ047>049-052>055-059>063-066>070-074>076-081>083-291100-
SOUTHEAST LOWER MICHIGAN

CITY           SKY/WX    TMP DP  RH WIND       PRES   REMARKS
ADRIAN         PTCLDY    59  51  75 S3        30.12R
ALMA           MOCLDY    59  55  85 E3        30.10R
ANN ARBOR      PTCLDY    58  53  84 E3        30.11S
BAD AXE        CLOUDY    55  54  96 CALM      30.14R
CARO           CLOUDY    55  51  86 SE3       30.12S
DETROIT CITY   PTCLDY    62  55  77 E3        30.14R
DETROIT        MOCLDY    60  55  83 E5        30.12S
FLINT          MOCLDY    61  53  75 SE6       30.11S
GROSSE ILE     PTCLDY    63  55  77 E5        30.11S
HILLSDALE      PTCLDY    60  52  74 SE5       30.11R
HOWELL         MOCLDY    57  55  90 SE6       30.11R

CITY           SKY/WX    TMP DP  RH WIND       PRES   REMARKS
JACKSON        MOCLDY    62  51  67 S9        30.10R
LAMBERTVILLE   CLEAR     61  50  67 SE3       30.12R
LANSING        CLOUDY    62  54  74 SE9       30.10R
LAPEER         FAIR      56  50  82 SE3       30.14S
MASON          MOCLDY    58  54  84 SE6       30.11R
MONROE         CLEAR     64  55  72 SE7       30.10R
MT. CLEMENS    PTCLDY    60  55  81 SE6       30.13R
PONTIAC        MOCLDY    59  53  80 SE6       30.12S
PORT HOPE        N/A     58  50  75 S3        30.12R
PORT HURON     MOCLDY    50  50 100 CALM      30.15R
TRI CITIES     CLOUDY    60  52  74 SE5       30.11S
TROY           PTCLDY    59  53  80 NE3       30.15R
SAGINAW HB     CLOUDY    59  52  77 SE5       30.10S
$$
MIZ043>046-050>051-056>058-064>065-071>073-077>080-291100-
SOUTHWEST LOWER MICHIGAN

CITY           SKY/WX    TMP DP  RH WIND       PRES   REMARKS
BATTLE CREEK   MOCLDY    64  51  62 SE9       30.08S
BENTON HARBOR  CLOUDY    66  59  78 SE10      30.02S
BIG RAPIDS     CLOUDY    60  57  91 SE10      30.07R
COLDWATER      PTCLDY    62  52  70 SE6       30.09R
FREMONT        CLOUDY    62  55  75 SE6       30.04R
HOLLAND        MOCLDY    65  58  78 SE9       30.04S
GRAND RAPIDS   CLOUDY    62  59  90 SE7       30.07R
IONIA          FAIR      61  57  87 SE6       30.08R
KALAMAZOO      MOCLDY    64  54  69 SE3       30.08R
LUDINGTON      CLOUDY    63  55  74 SE7       30.02R
MARSHALL       PTCLDY    60  51  71 SE6       30.09R
MOUNT PLEASANT MOCLDY    58  53  84 E5        30.09S
MUSKEGON       MOCLDY    64  56  75 SE10      30.04R
SOUTH HAVEN    CLOUDY    66  60  81 SE7       30.03S
$$
MIZ016>042-291100-
NORTHERN LOWER MICHIGAN

CITY           SKY/WX    TMP DP  RH WIND       PRES   REMARKS
ALPENA         CLOUDY    54  51  90 S3        30.11S
BEAVER ISLAND  RAIN      60  56  85 SE6       30.05S
CADILLAC       CLOUDY    58  54  85 E7        30.07F
CHARLEVOIX     MOCLDY    60  53  77 SE8       30.08S
FRANKFORT      RAIN      61  54  79 SE3       30.04S
GAYLORD        CLOUDY    55  52  89 S7        30.09F
GRAYLING       CLOUDY    56  52  85 SE6       30.11R
HARBOR SPRINGS MOCLDY    59  52  78 NE5       30.07S
HOUGHTON LAKE  CLOUDY    55  50  83 E5        30.11R
MANISTEE       CLOUDY    63  52  67 E6        30.03S
OSCODA         CLOUDY    55  53  92 CALM      30.11S
PELLSTON       CLOUDY    53  51  93 CALM      30.07S
TRAVERSE CITY  CLOUDY    62  53  72 CALM      30.04S
$$
MIZ007>008-015-291100-
EASTERN UPPER MICHIGAN

CITY           SKY/WX    TMP DP  RH WIND       PRES   REMARKS
KINROSS        CLOUDY    54  52  94 SE6       30.08S
MACKINAC ISLAN CLOUDY    58  53  85 SE8       30.07S
NEWBERRY       CLOUDY    51  50  97 CALM      30.06S
S. S. MARIE    CLOUDY    51  49  92 E3        30.08S
$$
MIZ004>006-011>014-085-291100-
CENTRAL UPPER MICHIGAN

CITY           SKY/WX    TMP DP  RH WIND       PRES   REMARKS
MANISTIQUE     CLOUDY    60  56  87 SE5       30.04R
ESCANABA       CLOUDY    63  55  77 SE6       30.01F
MENOMINEE      CLOUDY    61  57  88 S5        30.00S
SAWYER-GWINN   CLOUDY    58  54  89 S7        30.01F
$$
MIZ001>003-009>011-084-291100-
WESTERN UPPER MICHIGAN

CITY           SKY/WX    TMP DP  RH WIND       PRES   REMARKS
IRON MOUNTAIN  LGT RAIN  59  56  89 SE6       29.99F
HOUGHTON       CLOUDY    59  56  89 SE7       29.96S
COPPER HARBOR    N/A     62  57  83 SW8       29.96S
$$

ABBREVIATIONS USED IN REMARKS
   TC - TEMPERATURE IN CELSIUS
  WCI - WIND CHILL INDEX
   HX - HEAT INDEX
  VSB - VISIBILITY




USA.gov is the U.S. government's official web portal to all federal, state and local government web resources and services.